Flag for U.S.A. Weather past 2 weeks in Savannah, Georgia, U.S.A.

Now
55 °F

Sunny.


Feels Like: 55 °F
Forecast: 46 / 65 °F
Wind: 2 mph from North

Location: Hunter U. S. Army Airfield

Current Time: Dec 27, 2014 at 10:18:31 AM

Latest Report: Dec 27, 2014 at 9:58 AM


Visibility: 10 mi

Pressure: 30.33 "Hg

Humidity: 83%

Dew point: 49 °F

Location of SavannahLocation

Historic Weather in Savannah — Graph

°F

Savannah temperature yesterday

Maximum temperature yesterday: 65 °F (at 1:58 PM)
Minimum temperature yesterday: 35 °F (at 5:58 AM)
Average temperature yesterday: 49 °F

Past Weeks' High & Low Weather Summary

 TemperatureHumidityPressure
High74 °F (Dec 16, 12:58 PM)100% (Dec 14, 11:58 PM)30.34 "Hg (Dec 14, 11:58 PM)
Low32 °F (Dec 13, 4:58 AM)22% (Dec 13, 2:58 PM)29.74 "Hg (Dec 24, 4:55 PM)
Average52 °F83%30.08 "Hg
* Reported Dec 12 8:58 AM — Dec 27 8:58 AM, Savannah, Weather by CustomWeather, © 2014

Note: Actual official high and low records may vary slightly from our data, if they occured in-between our weather recording intervals... More about our weather records

Advertising

Savannah weather history for previous 24 hours

 ConditionsComfort  
Time TempWeatherWind HumidityBarometerVisibility
8:58 AM
Dec 27
50 °FSunny.5 mph97%30.32 "Hg10 mi
7:58 AM47 °FSunny.2 mph100%30.31 "Hg10 mi
6:58 AM46 °FClear.2 mph100%30.29 "Hg10 mi
5:58 AM46 °FClear.No wind100%30.26 "Hg10 mi
4:58 AM47 °FClear.3 mph100%30.26 "Hg10 mi
3:58 AM46 °FClear.No wind100%30.26 "Hg10 mi
2:58 AM46 °FClear.2 mph100%30.27 "Hg7 mi
1:58 AM45 °FFog.2 mph100%30.28 "Hg1 mi
12:58 AM44 °FClear.2 mph100%30.28 "Hg9 mi
12:53 AM45 °FFog.2 mph100%30.27 "Hg5 mi
11:58 PM
Dec 26
45 °FClear.2 mph100%30.29 "Hg10 mi
10:58 PM46 °FClear.No wind100%30.30 "Hg10 mi
9:58 PM49 °FClear.No wind100%30.31 "Hg10 mi
8:58 PM51 °FClear.2 mph95%30.30 "Hg10 mi
7:58 PM51 °FClear.No wind94%30.29 "Hg10 mi
6:58 PM53 °FClear.No wind87%30.29 "Hg10 mi
5:58 PM55 °FClear.3 mph82%30.28 "Hg10 mi
4:58 PM61 °FSunny.6 mph70%30.26 "Hg10 mi
3:58 PM64 °FSunny.5 mph62%30.25 "Hg10 mi
2:58 PM64 °FSunny.5 mph61%30.26 "Hg10 mi
1:58 PM65 °FSunny.1 mph57%30.26 "Hg10 mi
12:58 PM64 °FSunny.1 mph58%30.28 "Hg10 mi
11:58 AM62 °FSunny.2 mph57%30.32 "Hg10 mi
10:58 AM59 °FSunny.6 mph58%30.33 "Hg10 mi
Weather by CustomWeather, © 2014

See weather overviewHow to use our weather pages